Theta_e
311 311 311 310 310 310 310 310 309 310 311 311 312 312 313 313 312 312 311 313 317 319 318 316 315 315 307 298 297 309 321 320 309 306 303 301 299 298 294 296 297 295 296 296 297 297 297
311 311 311 311 312 311 311 310 310 309 309 311 311 312 311 313 313 311 311 311 313 316 320 317 314 314 301 290 307 314 312 307 305 304 302 302 299 300 296 295 296 296 297 297 298 297 297
310 311 311 311 311 311 311 310 310 310 310 311 310 311 311 311 313 312 311 311 311 314 318 316 314 310 300 296 310 313 308 306 306 303 301 302 302 299 298 295 297 296 293 295 295 296 295
312 312 312 311 311 312 311 310 309 310 310 311 311 311 311 311 312 312 311 311 310 313 317 316 315 306 296 305 308 308 307 305 306 305 303 305 304 300 297 298 295 292 292 289 292 293 294
311 311 311 311 310 310 310 309 309 309 310 310 311 310 311 311 312 311 311 311 311 312 317 316 307 301 295 308 302 307 307 302 303 304 304 304 302 298 297 293 289 290 287 287 289 293 292
310 309 309 310 309 309 308 309 309 309 310 310 309 310 311 311 311 312 311 311 311 315 313 311 305 296 299 295 301 305 306 304 300 301 300 300 298 294 292 290 283 286 285 286 287 291 292
307 308 308 307 308 308 307 308 308 308 308 309 309 310 309 310 310 310 309 306 302 301 304 300 300 300 296 300 304 302 304 301 301 298 291 296 290 287 290 291 289 287 286 286 288 290 290
306 306 307 307 307 307 307 306 307 307 307 308 309 308 309 310 310 310 308 298 300 302 294 302 303 301 302 301 295 298 304 296 295 290 293 290 286 291 292 291 289 287 286 286 289 290 290
305 305 306 306 306 305 305 305 305 306 306 307 308 308 308 309 309 307 302 300 307 305 294 296 302 301 302 300 295 296 300 297 292 289 290 288 289 292 290 288 287 287 286 286 286 288 289
304 305 304 304 304 304 304 304 304 304 305 305 307 307 307 308 302 303 299 305 305 304 285 288 295 300 302 301 294 301 302 297 293 289 290 289 292 288 288 287 288 284 289 288 287 285 282
302 302 303 303 302 302 302 303 303 303 303 304 305 306 307 307 301 298 301 306 305 301 273 289 294 306 302 297 297 296 302 296 291 289 290 288 287 287 285 287 289 287 289 288 287 286 285
299 301 300 301 302 301 301 301 302 302 302 303 304 305 306 303 303 301 305 305 299 282 271 284 294 293 292 296 295 296 296 299 296 291 290 289 291 290 289 288 290 290 289 288 287 286 281
299 299 299 300 300 300 300 301 301 301 301 302 302 303 303 303 296 305 304 298 279 275 287 284 288 291 291 291 292 293 291 289 287 282 283 288 287 290 290 287 289 289 287 283 281 282 281
297 298 298 299 299 299 300 300 300 300 301 301 301 302 301 302 304 305 298 286 274 281 282 290 290 291 287 291 291 290 290 287 293 293 291 283 281 287 290 289 285 286 287 284 278 277 282
297 298 297 298 297 299 299 299 299 299 300 300 300 298 297 298 303 301 288 277 278 282 286 285 290 285 285 289 291 289 288 289 291 294 288 286 286 290 290 290 290 286 283 289 281 276 281
296 297 297 297 298 298 298 298 298 299 299 299 294 292 292 300 299 295 282 279 282 287 287 287 283 287 283 286 287 287 287 292 292 294 297 290 285 285 288 292 290 288 290 282 284 280 278
296 296 296 297 297 297 297 297 298 298 299 299 291 284 293 299 298 286 277 279 284 288 289 284 283 284 286 286 288 287 288 292 294 292 294 292 289 282 287 286 286 286 285 285 287 285 283
296 296 296 297 298 297 297 298 297 298 298 296 288 279 294 297 281 282 278 282 286 286 289 287 287 285 285 288 287 287 287 290 296 294 288 292 289 282 284 288 289 291 288 287 282 282 283
296 296 296 295 296 297 297 297 298 299 298 292 283 282 292 292 275 277 280 281 284 284 285 285 284 287 288 286 284 289 290 295 295 294 291 293 286 281 280 285 287 285 287 289 290 287 284
296 296 296 296 297 297 298 298 298 298 298 293 283 277 282 285 284 280 277 277 277 285 284 287 286 288 285 284 288 286 289 292 295 295 296 295 289 286 283 285 288 282 285 287 287 284 284
296 296 297 296 296 297 297 297 297 297 298 293 284 279 283 277 278 280 280 279 277 278 285 286 284 285 284 281 283 284 289 291 292 295 294 291 285 286 288 289 289 287 285 285 284 288 285
297 296 296 296 296 297 297 297 297 297 297 288 280 280 282 281 282 279 279 278 276 278 280 281 281 284 285 282 284 283 287 289 288 291 291 291 284 287 284 284 286 284 287 285 285 287 287
296 296 296 296 296 296 297 297 297 297 296 285 286 286 283 280 280 278 277 278 280 282 282 284 284 284 283 285 289 289 292 290 288 288 288 288 285 284 281 281 283 280 284 285 286 289 289
296 296 296 296 296 296 297 297 297 296 296 290 287 287 281 275 278 278 281 281 280 282 280 284 285 282 287 293 292 289 286 286 287 286 287 286 286 285 283 281 275 287 294 291 288 289 291
296 295 297 296 296 296 296 297 297 296 296 291 290 286 282 277 280 280 281 281 283 284 282 283 285 287 290 287 282 280 280 280 282 285 285 286 287 283 281 280 284 285 290 289 287 288 292
295 296 296 296 296 296 296 296 296 296 296 293 288 289 285 279 279 283 282 282 280 280 282 282 287 289 288 283 281 275 273 277 277 281 287 285 287 285 282 279 277 288 291 294 293 286 296
296 296 296 296 296 296 296 296 296 296 296 292 289 291 286 280 282 284 281 281 284 283 280 282 283 283 287 280 276 276 275 281 276 276 281 280 283 281 282 281 284 291 291 295 284 288 298
296 297 297 296 297 296 296 296 296 296 295 293 288 291 287 282 282 284 285 283 283 284 279 282 282 282 281 277 277 277 276 279 278 281 280 278 281 281 282 280 278 290 291 289 295 295 293
295 294 294 295 295 295 295 295 295 295 295 295 285 291 292 285 284 287 287 288 289 289 284 285 283 282 284 281 281 281 278 280 279 274 283 276 279 278 283 284 292 292 295 298 295 295 293
Wind_Speed
16 15 14 14 14 14 11 11 11 10 13 13 12 9 10 12 12 12 14 14 15 18 7 5 4 6 4 3 7 1 5 8 7 6 6 5 9 5 6 4 5 7 4 4 6 6 7
19 17 17 17 15 13 13 11 12 11 13 12 12 12 9 11 11 10 13 15 15 18 9 5 3 2 2 7 2 4 7 4 4 5 5 6 5 3 3 3 8 1 5 8 6 9 7
22 21 20 19 16 13 12 12 14 14 13 13 12 11 11 11 11 10 11 14 14 18 15 5 2 1 4 13 1 3 7 3 4 4 5 3 3 3 3 3 2 1 6 7 10 6 6
23 22 21 19 18 16 14 14 15 13 15 13 12 10 10 12 9 10 10 12 14 15 15 5 4 1 8 2 4 5 5 5 3 3 1 4 3 3 1 1 1 3 2 5 3 6 2
23 25 22 21 20 17 18 18 16 17 15 14 14 14 11 11 10 9 9 12 15 14 5 7 2 2 9 3 4 8 7 7 8 3 3 3 3 2 4 2 3 3 5 7 4 6 3
25 23 23 22 20 19 21 19 20 19 17 17 15 13 14 11 10 11 8 12 13 3 5 3 2 2 6 5 4 4 2 8 4 9 6 4 2 5 4 8 9 8 6 4 6 4 5
28 29 26 25 27 24 22 23 21 19 20 18 16 16 15 14 12 11 5 4 4 5 6 11 8 5 1 2 4 5 4 6 4 6 9 7 8 15 20 20 4 2 4 6 2 0 4
31 29 29 28 26 23 23 22 22 23 20 21 17 17 17 17 16 14 5 5 5 3 8 20 19 14 6 2 4 8 8 11 8 9 9 6 16 14 9 10 12 8 5 5 5 1 4
31 29 28 26 24 24 22 21 21 22 22 20 19 18 15 14 13 9 11 11 4 8 8 11 21 23 14 9 8 16 17 7 9 12 17 13 5 12 12 9 12 14 16 10 5 5 4
31 31 28 26 24 23 23 22 20 20 20 19 19 18 16 13 6 9 12 13 3 2 6 10 11 13 18 11 13 10 18 9 6 15 12 11 7 8 12 16 14 13 14 14 10 5 6
33 30 31 28 29 23 23 23 22 21 20 20 19 19 19 20 4 9 7 9 7 2 8 7 15 5 17 25 16 14 17 3 13 11 9 7 12 14 9 10 18 5 5 10 9 9 5
33 32 29 28 31 23 23 27 24 23 22 20 19 21 19 11 8 6 10 13 6 8 18 5 11 15 15 24 10 12 17 5 3 9 4 4 1 6 5 4 17 13 8 6 3 3 7
34 31 32 31 29 30 27 24 26 24 23 22 21 19 16 11 12 11 8 8 10 16 2 10 10 12 21 15 20 16 21 17 13 10 13 9 9 4 5 9 4 7 10 2 2 3 7
32 34 29 32 33 28 29 26 28 26 26 24 25 23 17 12 11 12 9 10 19 23 28 8 9 16 18 18 19 16 21 20 26 15 12 13 9 15 10 8 12 11 8 6 8 7 2
26 30 33 30 29 27 27 26 26 28 28 26 23 13 13 10 12 12 12 20 20 19 24 14 13 17 14 20 12 16 20 26 24 26 14 13 12 12 14 5 10 7 8 2 6 2 2
24 27 31 23 33 25 23 27 28 29 29 27 12 12 15 14 16 12 14 31 15 20 8 26 23 18 20 17 20 21 21 21 21 25 16 8 4 3 7 6 2 8 11 5 2 7 9
32 29 26 27 25 24 26 28 29 31 29 27 13 12 10 17 14 13 18 21 19 18 22 15 31 24 20 21 21 17 19 13 32 23 19 7 3 3 8 14 17 8 8 4 3 6 6
31 29 24 26 29 24 28 26 26 28 26 21 12 15 10 15 18 9 19 15 23 24 25 20 13 23 25 25 23 18 30 22 22 23 29 17 3 8 11 2 5 18 17 14 10 11 6
27 22 21 21 25 22 21 21 26 27 24 11 11 8 5 16 20 19 18 17 21 14 28 27 21 17 24 25 25 26 18 19 12 23 20 20 8 8 4 3 5 11 11 20 14 3 12
23 23 23 22 22 22 21 20 25 23 25 15 5 5 7 9 13 17 22 27 23 26 23 27 25 24 22 26 24 16 26 13 15 23 17 14 5 20 19 22 13 15 23 19 17 7 21
25 22 23 22 20 19 17 21 17 19 19 8 5 7 5 9 14 19 25 20 28 25 29 24 25 27 23 26 26 27 21 23 11 19 21 9 16 15 23 5 17 18 20 20 19 29 16
28 25 24 22 21 20 20 22 21 18 18 7 3 4 4 6 16 24 29 24 31 32 19 24 32 27 28 21 25 24 25 22 19 13 23 13 5 16 17 8 7 10 22 24 27 23 20
26 24 27 22 22 22 19 23 24 22 18 4 4 4 3 7 13 15 23 31 24 29 25 33 18 25 30 27 24 7 12 4 1 8 16 15 8 8 20 10 5 6 21 28 23 21 31
28 26 27 24 24 22 23 24 25 21 21 4 4 2 6 14 15 18 20 30 30 25 24 17 17 16 5 6 9 5 3 6 8 8 7 8 12 6 9 11 18 13 17 18 24 20 23
30 26 32 29 26 24 24 24 24 21 19 4 3 4 4 7 15 12 15 25 20 20 22 17 13 10 5 7 6 8 7 8 10 14 13 12 16 13 8 15 3 8 16 21 22 29 20
31 29 31 32 30 26 25 25 23 22 20 4 3 3 4 3 8 8 13 16 9 10 10 4 3 10 14 4 6 9 8 5 8 6 16 15 23 18 8 14 23 15 14 11 12 16 23
38 38 36 33 34 30 28 25 23 23 20 6 3 8 3 4 2 6 8 11 7 10 7 6 9 9 15 6 5 5 4 6 8 8 6 17 17 23 21 11 6 7 17 19 16 15 18
39 41 36 36 34 31 29 25 24 21 19 11 3 11 5 3 3 4 5 10 6 9 8 6 6 3 7 6 3 4 4 5 6 4 5 2 10 13 17 15 12 8 17 24 22 7 1
34 19 18 30 31 29 26 23 22 21 21 14 3 9 4 2 2 1 3 3 13 14 6 6 2 5 6 5 5 4 3 4 6 6 3 5 7 7 5 5 4 18 20 18 1 6 5
Wind_Direction
287 286 283 288 287 295 286 283 295 299 302 298 308 321 315 317 325 336 332 326 326 338 261 257 283 310 312 246 246 99 85 109 121 153 176 167 169 158 204 200 162 234 250 222 250 249 253
285 279 278 281 276 275 289 289 283 283 293 301 307 310 310 302 298 319 326 330 321 330 279 240 244 327 278 251 84 148 133 135 150 154 165 171 201 197 161 193 210 273 263 269 269 252 245
280 278 276 275 279 276 275 271 275 273 275 284 291 298 308 305 279 300 316 325 323 320 314 230 169 198 236 248 33 177 153 168 171 172 160 200 163 205 164 178 225 253 289 278 237 236 242
278 277 275 273 273 273 269 271 275 270 273 271 278 273 281 295 280 282 307 318 319 309 302 196 152 150 254 154 190 187 184 129 157 161 240 167 176 136 270 18 153 232 218 258 107 175 212
281 285 279 281 277 272 276 272 267 268 275 261 264 270 260 271 284 281 291 308 307 295 193 153 142 205 259 123 200 202 200 162 143 138 116 125 149 133 141 201 252 215 254 217 290 199 154
290 285 280 278 273 272 275 275 277 276 271 264 260 257 270 255 262 267 290 307 294 133 122 99 294 249 236 226 161 146 206 160 152 138 113 153 138 180 154 183 222 224 231 238 247 160 211
282 278 279 276 270 273 274 271 267 269 272 262 261 254 252 260 248 248 271 312 213 216 202 215 191 237 118 82 143 165 164 151 125 162 169 175 205 204 197 202 178 198 254 268 265 96 245
283 280 279 273 272 270 269 270 274 272 266 265 253 255 249 248 240 234 180 225 281 69 261 236 249 242 241 251 186 175 165 180 176 180 142 159 228 223 222 198 210 214 245 262 272 187 249
285 281 276 273 273 270 268 269 272 272 270 265 263 252 244 242 241 240 220 212 79 4 267 233 219 228 213 193 229 187 176 171 196 177 191 200 145 201 185 187 206 225 223 223 249 324 226
299 288 277 277 275 277 273 272 269 270 270 269 262 256 236 234 247 222 224 228 121 112 275 235 204 225 199 189 239 172 182 167 182 200 179 233 185 149 189 214 195 228 214 221 238 265 260
296 292 278 276 272 269 270 270 267 270 265 266 265 254 235 221 185 202 185 188 144 159 253 194 183 188 175 184 137 186 178 169 172 168 179 212 176 176 180 205 190 236 165 207 211 217 271
284 289 278 277 275 263 266 263 260 258 255 257 259 253 237 230 231 190 191 157 115 187 233 221 157 176 164 196 167 137 182 197 134 167 236 258 348 201 199 120 180 141 110 87 84 183 243
290 283 281 270 264 269 259 258 258 256 254 247 247 250 242 209 212 181 170 178 204 213 148 198 183 173 180 176 179 175 183 190 171 157 201 188 204 203 166 121 140 188 166 131 201 206 255
286 282 278 278 272 269 265 252 252 244 247 243 245 238 224 240 210 183 197 217 218 205 209 101 170 166 191 174 199 190 177 198 211 201 156 189 212 186 180 187 176 180 194 173 207 198 250
286 288 280 270 273 258 253 254 257 256 246 243 236 241 233 215 223 192 209 218 209 219 207 220 164 176 198 201 193 178 199 204 197 197 190 192 228 195 178 149 151 181 209 129 102 52 271
289 274 279 268 281 252 259 266 259 255 244 237 234 232 227 211 187 210 220 239 216 229 227 215 209 194 188 195 198 191 189 213 207 207 213 196 166 222 160 145 148 180 138 145 220 214 236
301 283 277 276 255 275 263 263 259 255 239 230 225 229 207 206 190 215 224 219 225 219 235 217 219 218 216 194 203 200 205 216 199 195 201 162 199 128 165 213 176 160 174 180 219 222 243
287 279 284 291 270 267 262 259 254 254 238 227 225 229 191 177 214 218 231 219 235 225 228 239 246 223 221 211 202 210 212 200 198 179 196 202 187 168 200 15 295 225 206 178 178 204 231
298 289 283 303 283 274 272 266 252 249 224 207 216 192 199 179 217 221 224 257 215 218 212 222 229 234 225 228 224 209 210 203 189 186 191 185 203 160 136 279 204 224 212 209 227 47 211
280 277 276 285 274 262 261 247 239 233 227 220 195 208 174 200 224 224 215 230 243 231 239 223 217 225 234 225 232 227 220 194 194 195 202 185 212 213 204 210 151 197 203 205 197 186 226
287 281 280 282 290 258 248 242 240 223 238 208 187 213 200 181 212 221 220 227 220 235 212 213 227 210 218 227 222 228 228 212 201 192 195 199 220 219 230 239 188 198 193 191 199 216 202
279 282 275 274 285 263 251 240 234 226 214 214 197 211 153 226 206 208 218 223 230 227 236 227 222 209 208 230 219 214 222 222 205 205 193 194 223 218 233 227 213 203 195 190 201 215 229
283 268 266 264 272 261 250 237 233 225 206 196 187 213 209 212 224 218 215 220 219 220 223 222 219 223 215 219 224 231 240 269 88 217 200 194 177 181 219 170 151 236 199 194 206 212 216
287 286 271 263 255 250 246 235 232 229 210 209 181 169 189 226 224 228 247 220 211 203 199 202 190 218 217 213 219 112 172 224 239 235 227 228 179 191 206 153 219 218 194 199 203 209 217
294 290 274 263 245 245 237 229 231 232 221 173 175 198 187 225 224 219 219 192 191 203 210 212 189 169 213 198 191 172 190 186 206 236 238 241 232 219 210 199 153 189 187 185 187 225 208
278 275 270 258 243 233 230 228 227 225 225 162 169 160 212 199 218 206 182 188 165 176 182 182 167 209 188 229 188 206 200 160 189 204 210 218 243 210 187 216 218 200 181 194 176 254 210
297 284 264 244 236 220 224 223 220 221 219 172 167 187 184 198 266 181 192 176 157 155 153 162 157 167 189 178 229 206 170 150 191 182 182 205 212 206 208 219 230 193 152 150 174 229 247
302 290 242 219 219 214 216 218 216 219 216 213 157 188 184 202 233 197 195 163 149 168 163 170 136 169 178 167 191 189 160 183 185 200 173 240 209 215 223 233 230 150 158 173 205 197 112
314 297 191 193 203 205 208 215 217 217 215 202 163 196 177 214 258 161 242 261 185 176 132 179 178 154 159 163 182 153 208 164 168 218 121 238 187 311 282 246 311 182 180 204 173 170 214